Main page
METAR-TAF:

METAR-TAF

Airports :

Brewster Field

Holdrege, Nebraska, United States

latitude: 40-27N, longitude: 099-20W, elevation: 2309 ft

Current weather observation

The report was made 29 minutes ago, at 16:15 UTC
Wind 3 mph from the West/Northwest
Temperature 72°F
Humidity 35%
Pressure 30.25 in. Hg
Visibility: 10 miles
Scattered clouds at a height of 7000 ft
Scattered clouds at a height of 9000 ft

METAR: KHDE 291615Z AUTO 30003KT 10SM SCT070 SCT090 22/06 A3025 RMK AO2 T02160055

Time: 11:44 (16:44 UTC)


TAF: missing

Weather observations and forecasts of more than 4000 airports (METAR and TAF reports).

The available stations are represented by yellow and red dots on the map.

Hover mouse over dot to see the name of the station.

Then click to see weather observations and forecasts.

To change the map : click on the green buttons with a black cross to zoom in, on the green button with a dash to zoom out, or on the green arrows for adjacent maps.


METAR-TAF: